Overview Statistics Trail Chart Weather Telemetry Raw packets
 

This is the latest recevied weather packets stored in our database for station/object IW2NTF-3. If no packets are shown the sender has not sent any weather packets the latest 10 day(s).

<< 545 546 547 548 549 550 551 >>
Time Temp. Humidity Pressure Rain* Wind** Luminosity Snow
1787904243 24.44° C 81% 1015.9 hPa 0 mm - 251 W/m² -
1787904183 24.44° C 81% 1016 hPa 0 mm - 257 W/m² -
1787904123 24.44° C 81% 1016.3 hPa 0 mm - 264 W/m² -
1787904063 24.44° C 81% 1016.3 hPa 0 mm - 258 W/m² -
1787904004 24.44° C 81% 1016.3 hPa 0 mm - 246 W/m² -
1787903943 24.44° C 81% 1016.3 hPa 0 mm - 237 W/m² -
1787903884 24.44° C 81% 1016.3 hPa 0 mm - 225 W/m² -
1787903823 24.44° C 81% 1016.3 hPa 0 mm - 218 W/m² -
1787903763 24.44° C 80% 1016.3 hPa 0 mm - 213 W/m² -
1787903703 24.44° C 81% 1016.2 hPa 0 mm - 206 W/m² -
1787903643 24.44° C 81% 1016.2 hPa 0 mm - 202 W/m² -
1787903583 24.44° C 81% 1016.2 hPa 0 mm - 204 W/m² -
1787903523 24.44° C 81% 1016.2 hPa 0 mm - 209 W/m² -
1787903463 24.44° C 81% 1016.2 hPa 0 mm - 214 W/m² -
1787903403 24.44° C 81% 1016.3 hPa 0 mm - 211 W/m² -
1787903343 24.44° C 81% 1016.2 hPa 0 mm - 213 W/m² -
1787903283 24.44° C 81% 1016.2 hPa 0 mm - 234 W/m² -
1787903223 24.44° C 81% 1016.3 hPa 0 mm - 237 W/m² -
1787903163 24.44° C 81% 1016 hPa 0 mm - 234 W/m² -
1787903103 24.44° C 81% 1016 hPa 0 mm - 230 W/m² -
1787903043 24.44° C 81% 1016.1 hPa 0 mm - 236 W/m² -
1787902983 24.44° C 81% 1016.1 hPa 0 mm - 221 W/m² -
1787902924 24.44° C 82% 1016 hPa 0 mm - 202 W/m² -
1787902870 24.44° C 82% 1016 hPa 0 mm - 188 W/m² -
1787902803 24.44° C 81% 1016 hPa 0 mm - 176 W/m² -

* Rain latest hour (hover to see other rain measurements)
** Current wind speed in m/s (hover to see current wind gust speed)